Location: Unspecified
(0.0000°N, 0.0000°E)
Time: 22:35:52
(UTC+00:00)

Hubble Space Telescope - Pass Details

Date: 07 June 2020
Orbit: 536 x 540 km, 28.5° (Epoch: 19 September)

Event Time Altitude Azimuth Distance (km) Brightness Sun altitude
Rises 18:45:37 0° 326° (NW) 2,668 5.4 -10.7°
Reaches altitude 10° 18:48:31 10° 347° (NNW) 1,779 3.9 -11.4°
Maximum altitude 18:51:14 17° 28° (NNE) 1,399 2.8 -12.0°
Enters shadow 18:53:53 10° 69° (ENE) 1,769 3.0 -12.6°
